When you browse on this site, cookies collect data to enhance your experience and personalize the content and advertising you see.
Visit our Privacy Policy to learn more. By continuing to use the site, you agree to this use of cookies and data.

Hourly Weather Río Gallegos

Today, 25 September, Friday

Time Temperature Precipitation Wind Pressure Humidity
00:00 +5°C° 0 mm 8 mps 752 mmHg 72%
01:00 +5°C° 0 mm 8 mps 753 mmHg 73%
02:00 +5°C° 0 mm 7 mps 753 mmHg 74%
03:00 +5°C° 0 mm 6 mps 754 mmHg 74%
04:00 +5°C° 0 mm 6 mps 754 mmHg 75%
05:00 +6°C° 0 mm 5 mps 755 mmHg 76%
06:00 +7°C° 0 mm 4 mps 755 mmHg 77%
07:00 +8°C° 0 mm 3 mps 755 mmHg 78%
08:00 +8°C° 0 mm 4 mps 755 mmHg 72%
09:00 +10°C° 0 mm 4 mps 755 mmHg 67%
10:00 +10°C° 0 mm 5 mps 754 mmHg 62%
11:00 +12°C° 0 mm 5 mps 754 mmHg 56%
12:00 +13°C° 0 mm 5 mps 753 mmHg 51%
13:00 +14°C° 0 mm 5 mps 752 mmHg 45%
14:00 +15°C° 0 mm 5 mps 752 mmHg 44%
15:00 +15°C° 0 mm 5 mps 752 mmHg 43%
16:00 +15°C° 0 mm 5 mps 752 mmHg 42%
17:00 +13°C° 0 mm 4 mps 752 mmHg 47%
18:00 +11°C° 0 mm 4 mps 752 mmHg 53%
19:00 +10°C° 0 mm 4 mps 752 mmHg 59%
20:00 +9°C° 0 mm 3 mps 752 mmHg 63%
21:00 +8°C° 0 mm 2 mps 752 mmHg 68%
22:00 +8°C° 0 mm 1 mps 751 mmHg 73%
23:00 +7°C° 0 mm 2 mps 751 mmHg 72%

Tomorrow, 26 September, Saturday

Time Temperature Precipitation Wind Pressure Humidity
00:00 +7°C° 0 mm 2 mps 751 mmHg 71%
01:00 +7°C° 0 mm 3 mps 751 mmHg 70%
02:00 +6°C° 0 mm 4 mps 751 mmHg 69%
03:00 +6°C° 0 mm 5 mps 751 mmHg 68%
04:00 +5°C° 0 mm 6 mps 752 mmHg 67%
05:00 +4°C° 0 mm 8 mps 752 mmHg 68%
06:00 +3°C° 0 mm 9 mps 753 mmHg 68%
07:00 +3°C° 0 mm 11 mps 753 mmHg 69%
08:00 +3°C° 0 mm 12 mps 754 mmHg 61%
09:00 +4°C° 0 mm 13 mps 755 mmHg 54%
10:00 +5°C° 0 mm 13 mps 755 mmHg 47%
11:00 +5°C° 0 mm 14 mps 756 mmHg 44%
12:00 +6°C° 0 mm 14 mps 756 mmHg 41%
13:00 +6°C° 0 mm 15 mps 756 mmHg 39%
14:00 +6°C° 0 mm 14 mps 757 mmHg 40%
15:00 +6°C° 0 mm 14 mps 757 mmHg 42%
16:00 +5°C° 0 mm 13 mps 758 mmHg 43%
17:00 +4°C° 0 mm 12 mps 759 mmHg 47%
18:00 +3°C° 0 mm 10 mps 759 mmHg 50%
19:00 +2°C° 0 mm 8 mps 760 mmHg 53%
20:00 +3°C° 0 mm 7 mps 760 mmHg 55%
21:00 +3°C° 0 mm 6 mps 760 mmHg 57%
22:00 +2°C° 0 mm 5 mps 761 mmHg 59%
23:00 +2°C° 0 mm 5 mps 760 mmHg 61%

Day after tomorrow, 27 September, Sunday

Time Temperature Precipitation Wind Pressure Humidity
00:00 +2°C° 0 mm 5 mps 760 mmHg 64%
01:00 +3°C° 0 mm 4 mps 760 mmHg 66%
02:00 +2°C° 0 mm 5 mps 760 mmHg 67%
03:00 +2°C° 0 mm 5 mps 760 mmHg 68%
04:00 +2°C° 0 mm 6 mps 759 mmHg 69%
05:00 +2°C° 0 mm 7 mps 759 mmHg 72%
06:00 +2°C° 0 mm 8 mps 758 mmHg 74%
07:00 +2°C° 0 mm 9 mps 758 mmHg 76%
08:00 +3°C° 0 mm 9 mps 757 mmHg 71%
09:00 +5°C° 0 mm 9 mps 756 mmHg 65%
10:00 +6°C° 0 mm 9 mps 755 mmHg 59%
11:00 +7°C° 0 mm 9 mps 753 mmHg 55%
12:00 +8°C° 0 mm 10 mps 752 mmHg 51%
13:00 +9°C° 0 mm 10 mps 751 mmHg 48%
14:00 +10°C° 0 mm 9 mps 750 mmHg 47%
15:00 +11°C° 0 mm 7 mps 749 mmHg 47%
16:00 +11°C° 0 mm 6 mps 748 mmHg 46%
17:00 +11°C° 0 mm 6 mps 747 mmHg 48%
18:00 +10°C° 0 mm 6 mps 746 mmHg 49%
19:00 +9°C° 0 mm 6 mps 745 mmHg 51%
20:00 +9°C° 0 mm 7 mps 745 mmHg 52%
21:00 +8°C° 0 mm 9 mps 745 mmHg 53%
22:00 +8°C° 0 mm 10 mps 744 mmHg 54%
23:00 +7°C° 0.1 mm 9 mps 744 mmHg 60%

28 September, Monday

Time Temperature Precipitation Wind Pressure Humidity
00:00 +6°C° 0.1 mm 9 mps 744 mmHg 66%
01:00 +6°C° 0.1 mm 8 mps 744 mmHg 72%
02:00 +5°C° 0 mm 9 mps 744 mmHg 69%
03:00 +2°C° 0 mm 10 mps 744 mmHg 65%
04:00 +1°C° 0 mm 11 mps 745 mmHg 62%
05:00 0°C° 0 mm 12 mps 745 mmHg 61%
06:00 0°C° 0 mm 13 mps 745 mmHg 60%
07:00 0°C° 0 mm 14 mps 745 mmHg 59%
08:00 +1°C° 0 mm 14 mps 745 mmHg 55%
09:00 +3°C° 0 mm 13 mps 745 mmHg 51%
10:00 +4°C° 0 mm 13 mps 745 mmHg 47%
11:00 +5°C° 0 mm 13 mps 745 mmHg 46%
12:00 +5°C° 0 mm 12 mps 745 mmHg 44%
13:00 +5°C° 0 mm 12 mps 746 mmHg 43%
14:00 +4°C° 0 mm 12 mps 746 mmHg 44%
15:00 +3°C° 0 mm 11 mps 746 mmHg 44%
16:00 +2°C° 0 mm 11 mps 747 mmHg 45%
17:00 +2°C° 0 mm 11 mps 747 mmHg 47%
18:00 +1°C° 0 mm 10 mps 748 mmHg 49%
19:00 0°C° 0 mm 10 mps 748 mmHg 51%
20:00 -2°C° 0 mm 10 mps 749 mmHg 54%
21:00 -1°C° 0 mm 9 mps 749 mmHg 56%
22:00 -2°C° 0 mm 8 mps 749 mmHg 59%
23:00 -2°C° 0 mm 7 mps 749 mmHg 61%

29 September, Tuesday

Time Temperature Precipitation Wind Pressure Humidity
00:00 -3°C° 0 mm 7 mps 749 mmHg 64%
01:00 -3°C° 0 mm 6 mps 749 mmHg 66%
02:00 -3°C° 0 mm 6 mps 749 mmHg 66%
03:00 -4°C° 0 mm 5 mps 748 mmHg 66%
04:00 -4°C° 0 mm 5 mps 748 mmHg 67%
05:00 -2°C° 0 mm 5 mps 748 mmHg 63%
06:00 -2°C° 0 mm 4 mps 748 mmHg 59%
07:00 -1°C° 0 mm 4 mps 747 mmHg 55%
08:00 0°C° 0 mm 5 mps 747 mmHg 49%
09:00 +1°C° 0 mm 5 mps 746 mmHg 44%
10:00 +2°C° 0 mm 5 mps 745 mmHg 39%
11:00 +3°C° 0 mm 6 mps 744 mmHg 38%
12:00 +2°C° 0 mm 8 mps 743 mmHg 37%
13:00 +3°C° 0 mm 9 mps 742 mmHg 37%
14:00 +3°C° 0 mm 9 mps 741 mmHg 37%
15:00 +3°C° 0 mm 9 mps 741 mmHg 38%
16:00 +5°C° 0 mm 9 mps 741 mmHg 38%
17:00 +2°C° 0.1 mm 8 mps 741 mmHg 46%
18:00 0°C° 0.1 mm 7 mps 741 mmHg 54%
19:00 -1°C° 0.1 mm 7 mps 741 mmHg 61%
20:00 -2°C° 0 mm 6 mps 741 mmHg 58%
21:00 -2°C° 0 mm 6 mps 741 mmHg 56%
22:00 -3°C° 0 mm 6 mps 742 mmHg 53%
23:00 -3°C° 0.1 mm 6 mps 742 mmHg 56%

30 September, Wednesday

Time Temperature Precipitation Wind Pressure Humidity
00:00 -4°C° 0.1 mm 6 mps 742 mmHg 60%
01:00 -4°C° 0.1 mm 5 mps 742 mmHg 64%
02:00 -4°C° 0 mm 5 mps 742 mmHg 65%
03:00 -4°C° 0 mm 5 mps 742 mmHg 67%
04:00 -3°C° 0 mm 4 mps 742 mmHg 68%
05:00 -4°C° 0 mm 5 mps 743 mmHg 69%
06:00 -3°C° 0 mm 6 mps 744 mmHg 71%
07:00 -3°C° 0 mm 7 mps 744 mmHg 73%
08:00 -2°C° 1.5 mm 8 mps 745 mmHg 72%
09:00 -3°C° 1.5 mm 10 mps 746 mmHg 72%
10:00 -2°C° 1.5 mm 12 mps 747 mmHg 72%
11:00 -2°C° 0 mm 12 mps 748 mmHg 68%
12:00 -1°C° 0 mm 12 mps 749 mmHg 64%
13:00 -1°C° 0 mm 12 mps 749 mmHg 60%
14:00 -1°C° 0 mm 11 mps 750 mmHg 57%
15:00 0°C° 0 mm 9 mps 751 mmHg 55%
16:00 0°C° 0 mm 8 mps 752 mmHg 53%
17:00 -1°C° 0.3 mm 7 mps 753 mmHg 64%
18:00 -1°C° 0.3 mm 5 mps 753 mmHg 74%
19:00 -2°C° 0.3 mm 4 mps 754 mmHg 85%
20:00 -2°C° 0.4 mm 5 mps 755 mmHg 84%
21:00 -4°C° 0.4 mm 6 mps 756 mmHg 84%
22:00 -4°C° 0.4 mm 7 mps 756 mmHg 83%
23:00 -4°C° 0.1 mm 7 mps 757 mmHg 80%
Show more